Location: Asheville, NC
(35.6000°N, 82.5500°W)
Time: 13:14:41
(UTC-05:00)

Vanguard 1 Rocket - Pass Details

Date: 16 February 2018
Orbit: 655 x 4222 km, 34.3° (Epoch: 21 February)

Event Time Altitude Azimuth Distance (km) Brightness Sun altitude
Rises 08:02:11 0° 288° (WNW) 7,915 11.5 8.1°
Reaches altitude 10° 08:09:37 10° 277° (W) 6,352 11.1 9.5°
Maximum altitude 08:22:35 24° 233° (SW) 3,985 10.5 12.0°
Drops below altitude 10° 08:31:03 10° 184° (S) 3,990 11.0 13.5°
Sets 08:34:25 0° 169° (S) 4,533 11.5 14.1°
